Погода Аскино

Погода Аскино : погода сейчас, прогноз погоды и архив. Всё, что Вы хотите узнать о погоде Аскино!

Поиск расширенной информации на нашем сайте:

Другие новости

Новости СМИ2

Главная страница сайта

Новости сайта

03.07.2017

Напоминаем, что на нашем специализированном сайте Метеоцентр.Азия вы можете получить высокодетализированные автоматические прогнозы погоды по пунктам России, СНГ и мира в авиационном формате (включающие направление и скорость ветра, видимость, явления погоды, количество и форму облачности, нижнюю и верхнюю границу облачности).


Погода Аскино - сегодня

Время (UTC), дата Ветер
(°,м/с) 
Видим.   Явления Облачность Т
(°С)
Тd
(°С)
f(%) Тe
(°С)
Pmin
(гПа)
dP
(гПа)
Po
(мм)
O2
(г/м3)
Тmin Tmax R s Состояние
почвы
00 16.10.18 180 (Ю) 4000 м  слаб. снег{ливн. осадки}  10/10 300 м 
[Ns]
-0.9 -2.1 92 -3  1021.6  -1.2  747  302           
03 16.10.18 170 (Ю) 4000 м  слаб. дождь со снегом  10/10 300 м 
[Ns]
-0.3 -1.4 92 -2  1020.7  -0.8  746  301  -1.1    равномерный
мокрый или
старый снег
100% 
06 16.10.18 190 (Ю) 2000 м  морось{снег, дождь}  10/10 300 м 
[St]
+0.3 -0.8 92 -2  1020.2  -0.4  746  300           
09 16.10.18 200 (Ю) 2000 м  {морось}  10/10 300 м 
[St]
+1.1 -0.1 92 -1  1019.4  -0.7  745  299           
12 16.10.18 210 (ЮЗ) 2000 м  морось  10/10 300 м 
[St]
+1.7 +0.6 92 1019.1  -0.3  745  298           
18 16.10.18 210 (ЮЗ) 4000 м  слаб. морось{дождь}  10/10 300 м 
[St]
+3.5 +2.5 93 +2  1017.2  -1.2  744  295           
21 16.10.18 180 (Ю) 4000 м  слаб. морось  10/10 300 м 
[St]
+3.9 +2.9 93 +3  1015.3  -1.9  742  294           
00 17.10.18 220 (ЮЗ) 2000 м  морось  10/10 300 м 
[St]
+6 +5.1 94 +4  1012.5  -2.5  740  291           
03 17.10.18 220 (ЮЗ) 6{10}  1000 м  морось  10/10 300 м 
[St]
+6.1 +5.2 94 +4  1009.9  -2.5  739  290  +2.4      мокрая 
06 17.10.18 250 (З) 7{11}  10 км  {морось}  10/10 600 м 
[Sc]
+7 +5.8 92 +5  1008  -1.7  737  289           
09 17.10.18 270 (З) 5{10}  10 км    10/10 600 м 
[Sc]
+7.5 +5.8 89 +6  1007.9  737  288           
18 17.10.18 340 (С) 6{11}  н/о    3/0 средняя 
[Ac cuf]
+4.1 -0.8 70 +1  1016.9  1.7  744  295           
21 17.10.18 310 (СЗ) н/о    3/0 средняя 
[Ac cuf]
+3.3 -0.5 76 +1  1018.2  1.2  744  296           
00 18.10.18 310 (СЗ) н/о    10/0 средняя 
[As op]
+3.2 -0.6 76 +2  1019.1  0.9  745  297           
03 18.10.18 320 (СЗ) 6{11}  20000 м    10/10 600 м 
[Sc]
+3.1 -1.5 72 1019.4  0.2  745  297  +1.5        мокрая 
06 18.10.18 330 (СЗ) 6-11{11}  20000 м    9/9 1000 м 
[Sc]
+3.4 -1.4 71 +1  1020.1  0.8  746  297           
09 18.10.18 310 (СЗ) 5{11}  20000 м    9/9 1000 м 
[Sc]
+5.7 -1.1 62 +4  1019.7  -0.2  746  294           
12 18.10.18 290 (З) 20000 м    6/4 1000 м верхняя 
[Sc diur, vesp|Ci sp]
+5.8 -1 62 +4  1019.2  -0.5  745  294           
18 18.10.18 200 (Ю) н/о    6/0 средняя 
[Ac cuf]
+0.2 -1.7 87 -2  1018.3  -1.7  744  300           
21 18.10.18 210 (ЮЗ) н/о    10/0 средняя 
[Ac und]
+3.4 +0.7 82 +1  1016.3  -1.6  743  296           
00 19.10.18 220 (ЮЗ) н/о    10/0 средняя 
[Ac und]
+5.1 +1.2 76 +3  1014.1  -2  742  293           
03 19.10.18 240 (ЮЗ) 20000 м    10/0 средняя 
[Ac und]
+5.9 +2.2 77 +4  1013.2  -0.8  741  292  +0.2        мокрая 
06 19.10.18 250 (З) 20000 м    10/0 средняя 
[Ac und]
+6.5 +3.4 81 +5  1012.9  -0.2  741  291           
09 19.10.18 230 (ЮЗ) 10 км    10/10 600 м 
[Sc]
+8 +5.2 82 +7  1012.6  -0.2  741  289           
12 19.10.18 240 (ЮЗ) 10 км    9/8 1000 м средняя 
[Cu med, cong|Ac trans]
+10.9 +6.3 73 +11  1011.6  -0.7  740  286           
Время (UTC), дата Ветер
(°,м/с) 
Видим.   Явления Облачность Т
(°С)
Тd
(°С)
f(%) Тe
(°С)
Pmin
(гПа)
dP
(гПа)
Po
(мм)
O2
(г/м3)
Тmin Tmax R s Состояние
почвы

Для получения пояснительной информации подведите курсор к названию столбца.

ПОГОДА Аскино - архив

Всё, что Вы хотите узнать о погоде Аскино - удобно и подробно!

Выберите нужную дату (начиная с 1 января 2015* года) и нажмите кнопку "Найти".
Будут отображены архивные сводки погоды по пункту Аскино, начиная с указанной даты.


Отображать данные в формате CSV (для использования в таблицах Excel)


Внимание! Наш архив погоды предназначен исключительно для личного некоммерческого использования в познавательных целях. Если Вам необходимы официальные справки о состоянии погоды (для производственных, юридических, коммерческих и т.п. целей), обращайтесь в органы Росгидромета.

*Примечание: данная дата относится к архиву по метеостанциям СССР (Россия, СНГ, Балтия).
Архив по метеостанциям Зарубежной Европы и Азии (кроме Китая) хранится 10 дней, по другим регионам земного шара (Китай, Африка, Америка, Австралия, Океания) - 1 день.

Аскино - район местоположения метеостанции


Название, широта, долгота, высота метеостанции:
Аскино 56.1°ш. 56.6°д. 207 м над ур. моря [Российская Федерация]

Дополнительная информация

В oтличие oт бoльшинства пoгoдных сайтoв мы публикуем пoдрoбную метеoинфoрмацию в детальнoм прoфессиoнальнoм фoрмате.

Характеристики температуры и влажнoсти вoздуха измеряются на высoте 2 м в тени вдали oт зданий и деревьев.
Скoрoсть ветра измеряется на высoте 10 м (на урoвне рoста челoвека скoрoсть ветра ниже в 1.5-2 раза). Если метеoстанция нахoдится в гoрoде или в лесу, тo скoрoсть ветра занижена на 2-4 м/с пo сравнению с oткрытым местoм. Скoрoсть ветра над акватoриями крупных рек и oзёр, а также на вершинах хoлмoв на 2-5 м/с выше, чем в oбычных услoвиях.
Атмoсфернoе давление в разных тoчках местнoсти мoжет значительнo oтличаться oт давления на метеoстанции, в зависимoсти oт услoвий рельефа (при пoдъёме на 10 м давление пoнижается примернo на 1 мм рт.ст.).